This is the latest recevied weather packets stored in our database for station/object KA7KDX-4. If no packets are shown the sender has not sent any weather packets the latest 10 day(s).
| Time | Temp. | Humidity | Pressure | Rain* | Wind** | Luminosity | Snow |
|---|---|---|---|---|---|---|---|
| 1777958405 | 13.89° C | 60% | 1004.1 hPa | 1.02 mm | - | - | - |
| 1777958105 | 13.89° C | 59% | 1004.1 hPa | 1.78 mm | - | - | - |
| 1777957805 | 14.44° C | 58% | 1004 hPa | 1.52 mm | - | - | - |
| 1777957505 | 14.44° C | 57% | 1003.7 hPa | 1.27 mm | - | - | - |
| 1777957205 | 15° C | 57% | 1003.7 hPa | 1.02 mm | - | - | - |
| 1777956906 | 15° C | 57% | 1003.6 hPa | 1.27 mm | - | - | - |
| 1777956606 | 15.56° C | 55% | 1003.3 hPa | 0.76 mm | - | - | - |
| 1777956306 | 15.56° C | 52% | 1002.9 hPa | 0.25 mm | - | - | - |
| 1777956006 | 16.11° C | 47% | 1002.7 hPa | 0 mm | - | - | - |
| 1777955706 | 16.11° C | 46% | 1002.9 hPa | 0 mm | - | - | - |
| 1777955405 | 16.11° C | 45% | 1002.8 hPa | 0 mm | - | - | - |
| 1777955105 | 16.11° C | 45% | 1002.7 hPa | 0 mm | - | - | - |
| 1777954805 | 16.11° C | 45% | 1002.6 hPa | 0 mm | - | - | - |
| 1777954505 | 16.11° C | 46% | 1002.6 hPa | 0 mm | - | - | - |
| 1777954205 | 16.11° C | 46% | 1002.4 hPa | 0 mm | - | - | - |
| 1777953906 | 16.11° C | 45% | 1002.3 hPa | 0 mm | - | - | - |
| 1777953606 | 16.11° C | 46% | 1002.3 hPa | 0 mm | - | - | - |
| 1777953306 | 16.67° C | 45% | 1002.2 hPa | 0 mm | - | - | - |
| 1777953006 | 16.67° C | 45% | 1002 hPa | 0 mm | - | - | - |
| 1777952705 | 16.67° C | 45% | 1001.9 hPa | 0 mm | - | - | - |
| 1777952405 | 16.67° C | 44% | 1002 hPa | 0 mm | - | - | - |
| 1777952105 | 16.67° C | 43% | 1001.7 hPa | 0 mm | - | - | - |
| 1777951805 | 16.67° C | 44% | 1001.6 hPa | 0 mm | - | - | - |
| 1777951505 | 16.67° C | 44% | 1001.4 hPa | 0 mm | - | - | - |
| 1777951206 | 17.22° C | 43% | 1001.2 hPa | 0 mm | - | - | - |
* Rain latest hour (hover to see other rain measurements)
** Current wind speed in m/s (hover to see current wind gust speed)